WZZ734 LDSP-LYBE

Flight info

Callsign WZZ734
Flight time 0h 47m
Altitude 33000
Route REMPI1W REMPI L5 ENUPU ENUPU3Q
Aircraft A320/M-SDE3FGHIRWY/LB1

Departure

Time 2026-05-05 17:27
Airport Split Saint Jerome Airport (LDSP)

Arrival

Time 2026-05-05 18:14
Airport Belgrade Nikola Tesla Airport (LYBE)
Time Latitude Longitude Altitude Speed Heading
2026-05-05 17:01 43.53794 16.30000 68 ft 0 kts 117°
2026-05-05 17:11 43.53796 16.29995 65 ft 2 kts 117°
2026-05-05 17:11 43.53804 16.29975 66 ft 2 kts 117°
2026-05-05 17:12 43.53811 16.29955 62 ft 2 kts 117°
2026-05-05 17:12 43.53815 16.29945 62 ft 1 kts 117°
2026-05-05 17:12 43.53815 16.29944 61 ft 0 kts 117°
2026-05-05 17:12 43.53817 16.29938 61 ft 2 kts 117°
2026-05-05 17:13 43.53825 16.29918 62 ft 2 kts 117°
2026-05-05 17:13 43.53828 16.29910 64 ft 0 kts 117°
2026-05-05 17:13 43.53825 16.29912 63 ft 1 kts 138°
2026-05-05 17:13 43.53818 16.29910 63 ft 1 kts 191°
2026-05-05 17:14 43.53812 16.29903 65 ft 1 kts 216°
2026-05-05 17:14 43.53804 16.29892 63 ft 2 kts 227°
2026-05-05 17:14 43.53798 16.29880 62 ft 1 kts 234°
2026-05-05 17:14 43.53796 16.29876 62 ft 0 kts 235°
2026-05-05 17:15 43.53793 16.29871 64 ft 1 kts 236°
2026-05-05 17:15 43.53793 16.29870 64 ft 0 kts 236°
2026-05-05 17:15 43.53791 16.29865 65 ft 1 kts 236°
2026-05-05 17:16 43.53789 16.29863 65 ft 0 kts 236°
2026-05-05 17:18 43.53787 16.29858 65 ft 2 kts 237°
2026-05-05 17:19 43.53779 16.29841 69 ft 2 kts 237°
2026-05-05 17:19 43.53770 16.29821 69 ft 3 kts 237°
2026-05-05 17:19 43.53751 16.29780 68 ft 6 kts 236°
2026-05-05 17:19 43.53725 16.29730 75 ft 7 kts 234°
2026-05-05 17:20 43.53692 16.29661 71 ft 10 kts 253°
2026-05-05 17:20 43.53696 16.29538 76 ft 15 kts 273°
2026-05-05 17:20 43.53657 16.29373 72 ft 22 kts 236°
2026-05-05 17:20 43.53550 16.29181 73 ft 29 kts 232°
2026-05-05 17:21 43.53418 16.28944 64 ft 33 kts 232°
2026-05-05 17:21 43.53279 16.28694 82 ft 31 kts 232°
2026-05-05 17:21 43.53192 16.28591 83 ft 8 kts 282°
2026-05-05 17:22 43.53244 16.28631 84 ft 0 kts 52°
2026-05-05 17:26 43.53252 16.28645 89 ft 13 kts 52°
2026-05-05 17:26 43.53535 16.29156 70 ft 120 kts 52°
2026-05-05 17:27 43.54214 16.30366 198 ft 189 kts 53°
2026-05-05 17:27 43.55113 16.31904 859 ft 222 kts 54°
2026-05-05 17:27 43.56078 16.33648 1525 ft 223 kts 53°
2026-05-05 17:27 43.56999 16.35252 1614 ft 200 kts 64°
2026-05-05 17:28 43.57122 16.36941 2068 ft 178 kts 116°
2026-05-05 17:28 43.56205 16.37990 2468 ft 180 kts 171°
2026-05-05 17:28 43.55008 16.37480 2906 ft 201 kts 224°
2026-05-05 17:28 43.54177 16.35818 3499 ft 227 kts 236°
2026-05-05 17:29 43.53299 16.33937 4407 ft 231 kts 235°
2026-05-05 17:29 43.52553 16.32412 6442 ft 173 kts 235°
2026-05-05 17:29 43.51853 16.31033 7170 ft 186 kts 234°
2026-05-05 17:29 43.51043 16.29476 7541 ft 213 kts 234°
2026-05-05 17:30 43.50126 16.27741 8116 ft 234 kts 234°
2026-05-05 17:30 43.49128 16.25877 8852 ft 250 kts 233°
2026-05-05 17:30 43.48002 16.23943 9530 ft 271 kts 223°
2026-05-05 17:30 43.46276 16.22801 10256 ft 287 kts 189°
2026-05-05 17:31 43.44310 16.23141 11125 ft 297 kts 158°
2026-05-05 17:31 43.42689 16.24901 12054 ft 305 kts 126°
2026-05-05 17:31 43.41911 16.27630 12974 ft 313 kts 96°
2026-05-05 17:31 43.42226 16.30582 13901 ft 318 kts 65°
2026-05-05 17:32 43.43546 16.33005 14716 ft 320 kts 41°
2026-05-05 17:32 43.45271 16.34962 15581 ft 323 kts 35°
2026-05-05 17:32 43.47107 16.36772 16420 ft 326 kts 33°
2026-05-05 17:32 43.48990 16.38550 17241 ft 330 kts 33°
2026-05-05 17:33 43.50886 16.40363 18077 ft 334 kts 33°
2026-05-05 17:33 43.52763 16.42217 18829 ft 338 kts 34°
2026-05-05 17:33 43.54668 16.44158 19535 ft 342 kts 35°
2026-05-05 17:33 43.56571 16.46146 20264 ft 345 kts 37°
2026-05-05 17:34 43.58191 16.48615 20947 ft 352 kts 54°
2026-05-05 17:34 43.59547 16.51447 21670 ft 356 kts 55°
2026-05-05 17:34 43.60878 16.54346 22382 ft 359 kts 56°
2026-05-05 17:34 43.62206 16.57290 23063 ft 363 kts 56°
2026-05-05 17:35 43.63546 16.60263 23734 ft 367 kts 56°
2026-05-05 17:35 43.64892 16.63229 24209 ft 375 kts 55°
2026-05-05 17:35 43.66318 16.66337 24325 ft 393 kts 55°
2026-05-05 17:35 43.67820 16.69587 24446 ft 409 kts 55°
2026-05-05 17:36 43.69384 16.72956 24563 ft 424 kts 55°
2026-05-05 17:36 43.70990 16.76428 24918 ft 431 kts 55°
2026-05-05 17:36 43.72605 16.79934 25443 ft 433 kts 55°
2026-05-05 17:36 43.74214 16.83481 25932 ft 437 kts 56°
2026-05-05 17:37 43.75768 16.87117 26403 ft 441 kts 58°
2026-05-05 17:37 43.76767 16.89560 26711 ft 443 kts 58°
2026-05-05 17:37 43.78760 16.94589 27321 ft 448 kts 59°
2026-05-05 17:37 43.80228 16.98334 27776 ft 451 kts 59°
2026-05-05 17:38 43.81733 17.02164 28233 ft 454 kts 59°
2026-05-05 17:38 43.83257 17.06006 28682 ft 457 kts 58°
2026-05-05 17:38 43.84807 17.09872 29100 ft 461 kts 58°
2026-05-05 17:38 43.86375 17.13759 29513 ft 463 kts 58°
2026-05-05 17:39 43.87954 17.17667 29920 ft 466 kts 58°
2026-05-05 17:39 43.89543 17.21604 30289 ft 469 kts 58°
2026-05-05 17:39 43.91119 17.25523 30614 ft 472 kts 58°
2026-05-05 17:39 43.92735 17.29563 30973 ft 474 kts 58°
2026-05-05 17:40 43.94314 17.33521 31297 ft 477 kts 58°
2026-05-05 17:40 43.95891 17.37479 31630 ft 479 kts 58°
2026-05-05 17:40 43.97508 17.41535 31951 ft 481 kts 58°
2026-05-05 17:40 43.99128 17.45603 32259 ft 483 kts 58°
2026-05-05 17:41 44.00753 17.49699 32563 ft 485 kts 58°
2026-05-05 17:41 44.02381 17.53814 32882 ft 487 kts 58°
2026-05-05 17:41 44.04014 17.57944 33045 ft 488 kts 58°
2026-05-05 17:42 44.07235 17.66104 33061 ft 481 kts 58°
2026-05-05 17:42 44.10450 17.74265 33046 ft 481 kts 58°
2026-05-05 17:43 44.13657 17.82422 33052 ft 481 kts 58°
2026-05-05 17:43 44.16855 17.90591 33038 ft 481 kts 58°
2026-05-05 17:44 44.20050 17.98773 33033 ft 480 kts 58°
2026-05-05 17:44 44.23211 18.06905 33028 ft 480 kts 58°
2026-05-05 17:45 44.26385 18.15096 33020 ft 480 kts 59°
2026-05-05 17:45 44.29560 18.23289 33018 ft 480 kts 59°
2026-05-05 17:46 44.32713 18.31439 33009 ft 480 kts 59°
2026-05-05 17:46 44.35871 18.39648 33005 ft 480 kts 59°
2026-05-05 17:47 44.39022 18.47877 33000 ft 480 kts 59°
2026-05-05 17:47 44.42171 18.56117 33000 ft 480 kts 59°
2026-05-05 17:48 44.45318 18.64347 33000 ft 480 kts 59°
2026-05-05 17:48 44.48441 18.72557 33001 ft 481 kts 60°
2026-05-05 17:49 44.51578 18.80824 33002 ft 481 kts 60°
2026-05-05 17:49 44.54705 18.89105 32997 ft 480 kts 60°
2026-05-05 17:50 44.57823 18.97377 32989 ft 480 kts 60°
2026-05-05 17:50 44.60913 19.05606 32978 ft 480 kts 60°
2026-05-05 17:51 44.64018 19.13898 32968 ft 480 kts 60°
2026-05-05 17:51 44.67118 19.22186 32959 ft 479 kts 60°
2026-05-05 17:52 44.70215 19.30480 32958 ft 479 kts 60°
2026-05-05 17:52 44.73299 19.38801 32953 ft 480 kts 60°
2026-05-05 17:53 44.76356 19.47069 32948 ft 479 kts 60°
2026-05-05 17:53 44.79435 19.55395 32949 ft 480 kts 60°
2026-05-05 17:54 44.82501 19.63743 32950 ft 480 kts 60°
2026-05-05 17:54 44.84030 19.67916 32510 ft 478 kts 60°
2026-05-05 17:54 44.85541 19.72049 31599 ft 475 kts 60°
2026-05-05 17:54 44.87085 19.76262 30033 ft 490 kts 60°
2026-05-05 17:55 44.88627 19.80469 28799 ft 490 kts 61°
2026-05-05 17:55 44.90202 19.84775 27405 ft 495 kts 61°
2026-05-05 17:55 44.91754 19.89038 26485 ft 479 kts 61°
2026-05-05 17:55 44.93243 19.93150 25213 ft 464 kts 62°
2026-05-05 17:56 44.94593 19.97222 23990 ft 452 kts 71°
2026-05-05 17:56 44.95047 20.01536 22661 ft 443 kts 92°
2026-05-05 17:56 44.94380 20.05700 21289 ft 434 kts 114°
2026-05-05 17:56 44.93424 20.08159 20419 ft 428 kts 124°
2026-05-05 17:57 44.91621 20.11435 19159 ft 419 kts 132°
2026-05-05 17:57 44.89692 20.14470 17880 ft 412 kts 133°
2026-05-05 17:57 44.87195 20.18404 16082 ft 402 kts 130°
2026-05-05 17:57 44.85520 20.21512 14793 ft 395 kts 126°
2026-05-05 17:58 44.84037 20.24731 13523 ft 388 kts 122°
2026-05-05 17:58 44.83126 20.26885 12608 ft 384 kts 121°
2026-05-05 17:58 44.81364 20.31200 10852 ft 376 kts 121°
2026-05-05 17:58 44.80495 20.33290 10024 ft 371 kts 124°
2026-05-05 17:59 44.78770 20.35886 8695 ft 360 kts 149°
2026-05-05 17:59 44.75775 20.36964 7894 ft 322 kts 187°
2026-05-05 17:59 44.73779 20.35960 7403 ft 297 kts 217°
2026-05-05 17:59 44.72520 20.33827 7081 ft 274 kts 242°
2026-05-05 18:00 44.71999 20.32265 6919 ft 260 kts 246°
2026-05-05 18:00 44.71294 20.30023 6679 ft 244 kts 246°
2026-05-05 18:00 44.70617 20.27862 6443 ft 239 kts 246°
2026-05-05 18:00 44.69951 20.25730 6195 ft 238 kts 245°
2026-05-05 18:01 44.69285 20.23597 5946 ft 239 kts 245°
2026-05-05 18:01 44.68620 20.21466 5696 ft 238 kts 245°
2026-05-05 18:01 44.68109 20.19260 5443 ft 239 kts 262°
2026-05-05 18:01 44.68537 20.16251 5123 ft 245 kts 298°
2026-05-05 18:02 44.69271 20.14997 4951 ft 248 kts 318°
2026-05-05 18:02 44.70764 20.13846 4716 ft 251 kts 337°
2026-05-05 18:02 44.72391 20.12924 4462 ft 252 kts 337°
2026-05-05 18:02 44.74013 20.12009 4207 ft 252 kts 337°
2026-05-05 18:03 44.75637 20.11090 3952 ft 251 kts 337°
2026-05-05 18:03 44.77253 20.10172 3728 ft 249 kts 337°
2026-05-05 18:03 44.78964 20.09194 3484 ft 296 kts 338°
2026-05-05 18:03 44.80969 20.08046 3224 ft 322 kts 338°
2026-05-05 18:04 44.82999 20.06793 2976 ft 311 kts 329°
2026-05-05 18:04 44.84519 20.04873 2933 ft 287 kts 308°
2026-05-05 18:04 44.85701 20.02736 2944 ft 266 kts 306°
2026-05-05 18:04 44.86774 20.00738 2945 ft 247 kts 306°
2026-05-05 18:05 44.87774 19.98873 2945 ft 230 kts 306°
2026-05-05 18:05 44.88710 19.97131 2945 ft 215 kts 306°
2026-05-05 18:05 44.89586 19.95508 2943 ft 201 kts 306°
2026-05-05 18:05 44.90407 19.93990 2941 ft 189 kts 306°
2026-05-05 18:06 44.91206 19.92520 2947 ft 188 kts 306°
2026-05-05 18:06 44.91734 19.91550 2945 ft 188 kts 306°
2026-05-05 18:06 44.92895 19.89708 2926 ft 190 kts 329°
2026-05-05 18:06 44.94140 19.89307 2800 ft 189 kts 10°
2026-05-05 18:07 44.95282 19.90137 2487 ft 190 kts 53°
2026-05-05 18:07 44.95833 19.91899 2318 ft 204 kts 81°
2026-05-05 18:07 44.95882 19.93887 2484 ft 206 kts 93°
2026-05-05 18:07 44.95862 19.95909 2847 ft 208 kts 92°
2026-05-05 18:08 44.95839 19.97980 3010 ft 212 kts 94°
2026-05-05 18:08 44.95666 19.99954 3233 ft 198 kts 110°
2026-05-05 18:08 44.95050 20.01672 2898 ft 204 kts 124°
2026-05-05 18:08 44.94240 20.03333 2620 ft 206 kts 127°
2026-05-05 18:09 44.93412 20.04982 2370 ft 206 kts 125°
2026-05-05 18:09 44.92602 20.06652 2065 ft 208 kts 123°
2026-05-05 18:09 44.91876 20.08366 1918 ft 193 kts 120°
2026-05-05 18:09 44.91209 20.09961 1891 ft 186 kts 123°
2026-05-05 18:10 44.90521 20.11484 1844 ft 183 kts 124°
2026-05-05 18:10 44.89818 20.12976 1728 ft 182 kts 124°
2026-05-05 18:10 44.89167 20.14401 1588 ft 161 kts 123°
2026-05-05 18:10 44.88645 20.15633 1525 ft 140 kts 123°
2026-05-05 18:11 44.88123 20.16737 1381 ft 132 kts 124°
2026-05-05 18:11 44.87643 20.17816 1281 ft 130 kts 122°
2026-05-05 18:11 44.87183 20.18912 1100 ft 130 kts 121°
2026-05-05 18:11 44.86703 20.20005 1002 ft 133 kts 123°
2026-05-05 18:12 44.86211 20.21116 964 ft 134 kts 121°
2026-05-05 18:12 44.85707 20.22230 958 ft 135 kts 122°
2026-05-05 18:12 44.85200 20.23346 998 ft 135 kts 121°
2026-05-05 18:12 44.84728 20.24459 935 ft 133 kts 121°
2026-05-05 18:13 44.84232 20.25546 869 ft 132 kts 122°
2026-05-05 18:13 44.83743 20.26634 769 ft 132 kts 121°
2026-05-05 18:13 44.83257 20.27724 590 ft 131 kts 120°
2026-05-05 18:13 44.82778 20.28822 421 ft 131 kts 120°
2026-05-05 18:14 44.82307 20.29882 337 ft 119 kts 120°
2026-05-05 18:14 44.81915 20.30767 334 ft 86 kts 123°
2026-05-05 18:14 44.81747 20.31126 330 ft 29 kts 129°
2026-05-05 18:14 44.81574 20.31218 337 ft 27 kts 187°
2026-05-05 18:15 44.81466 20.31104 336 ft 17 kts 264°
2026-05-05 18:15 44.81513 20.30953 336 ft 18 kts 301°
2026-05-05 18:15 44.81582 20.30797 333 ft 20 kts 302°
2026-05-05 18:15 44.81665 20.30615 333 ft 24 kts 303°
2026-05-05 18:16 44.81756 20.30408 331 ft 26 kts 302°
2026-05-05 18:16 44.81857 20.30179 331 ft 29 kts 301°
2026-05-05 18:16 44.81967 20.29931 330 ft 31 kts 302°
2026-05-05 18:16 44.82082 20.29673 329 ft 28 kts 301°
2026-05-05 18:17 44.82081 20.29505 327 ft 16 kts 204°
2026-05-05 18:17 44.82061 20.29391 326 ft 13 kts 294°
2026-05-05 18:17 44.82069 20.29370 328 ft 0 kts 298°